EW6434 Weather Reports


time (UTC)temp
F
wind
direction
speed
knots
gust
knots
rain 1hr
in
rain 24hr
in
rain mn
in
humidity
%
barometer
mb
20260831053021 48 269 0.0 0.0 0.03 0.36 0.36 94 1014.4
20260831051516 48 269 0.0 0.0 0.06 0.36 0.36 94 1014.1
20260831050017 49 269 0.0 0.0 0.07 0.36 0.36 94 1014.4
20260831044514 49 269 0.0 0.9 0.07 0.36 0.36 93 1014.3
20260831043013 49 13 0.0 0.9 0.02 0.31 0.31 92 1014.4
20260831041512 49 76 0.0 0.9 0.01 0.30 0.30 91 1014.0
20260831040012 49 129 0.0 0.9 0.00 0.28 0.28 92 1013.9
20260831034511 49 63 0.0 0.9 0.02 0.28 0.28 92 1013.9
20260831033012 49 179 0.0 1.7 0.06 0.28 0.28 91 1013.9
20260831031517 50 258 0.0 0.9 0.10 0.28 0.28 92 1013.4
20260831030008 50 255 0.0 0.9 0.13 0.28 0.28 92 1013.6
20260831024508 50 117 0.0 0.0 0.14 0.27 0.27 92 1013.9
20260831023005 51 188 0.0 0.0 0.11 0.23 0.23 90 1013.9
20260831021507 52 294 0.0 0.0 0.07 0.19 0.19 88 1013.1
20260831020003 53 294 0.0 0.9 0.04 0.16 0.16 85 1012.6
20260831014502 56 237 0.0 0.9 0.00 0.12 0.12 76 1011.3
20260831013002 55 178 0.0 0.9 0.00 0.12 0.12 79 1010.4
20260831011502 56 178 0.0 1.7 0.00 0.12 0.12 76 1010.0
20260831010002 57 129 0.0 2.6 0.00 0.12 0.12 76 1009.6
20260831004600 58 139 0.0 0.0 0.00 0.12 0.12 78 1009.8
20260831003102 59 168 0.0 0.0 0.00 0.12 0.12 81 1009.6
20260831001608 60 168 0.0 0.0 0.00 0.12 0.12 77 1009.3
20260830234603 63 139 0.0 0.0 0.00 0.12 0.12 71 1009.4
20260830233057 63 139 0.0 0.9 0.04 0.12 0.12 70 1009.8
20260830231557 61 134 0.0 0.9 0.12 0.12 0.12 78 1009.9
20260830230056 57 64 0.0 1.7 0.12 0.12 0.12 87 1010.0
20260830224556 56 48 0.0 0.9 0.12 0.12 0.12 86 1010.3
20260830223054 62 269 0.0 6.1 0.07 0.07 0.07 61 1010.6
20260830221552 67 271 1.7 5.2 0.00 0.00 0.00 38 1009.2
20260830220057 69 319 0.0 8.7 0.00 0.00 0.00 43 1009.4
20260830214613 68 231 0.0 3.5 0.00 0.00 0.00 41 1009.6
20260830213050 70 222 0.0 2.6 0.00 0.00 0.00 40 1009.9
20260830211555 69 299 0.0 2.6 0.00 0.00 0.00 39 1009.9
20260830210050 69 243 0.0 6.1 0.00 0.00 0.00 40 1009.8
20260830204546 67 90 0.0 4.3 0.00 0.00 0.00 43 1010.1
20260830203050 66 67 0.0 6.1 0.00 0.00 0.00 46 1010.6
20260830201546 68 57 1.7 5.2 0.00 0.00 0.00 44 1010.6
20260830200042 68 97 0.9 6.1 0.00 0.00 0.00 43 1010.9
20260830194542 68 78 1.7 7.0 0.00 0.00 0.00 42 1011.1
20260830193055 70 77 0.0 7.8 0.00 0.00 0.00 49 1010.9
20260830191536 68 300 0.9 5.2 0.00 0.00 0.00 45 1011.1
20260830190037 66 281 0.0 9.6 0.00 0.00 0.00 50 1011.5
20260830184534 64 13 0.9 5.2 0.00 0.03 0.00 53 1011.5
20260830183030 64 34 0.0 3.5 0.00 0.03 0.00 55 1011.8
20260830181530 65 145 0.0 5.2 0.00 0.03 0.00 53 1012.1
20260830180036 66 65 0.9 7.0 0.00 0.03 0.00 57 1012.1
20260830174529 65 122 1.7 5.2 0.00 0.03 0.00 55 1012.6
20260830173040 65 263 0.9 6.1 0.00 0.03 0.00 56 1012.5
20260830171528 64 146 0.9 4.3 0.00 0.03 0.00 56 1012.5
20260830170028 64 274 0.0 5.2 0.00 0.03 0.00 62 1012.4
20260830164520 63 341 0.9 4.3 0.00 0.03 0.00 63 1012.3
20260830163023 61 40 0.9 4.3 0.00 0.03 0.00 63 1012.4
20260830161511 58 168 0.0 2.6 0.00 0.03 0.00 70 1012.3
20260830160010 56 169 0.0 0.0 0.00 0.03 0.00 78 1012.4
20260830154509 55 169 0.0 0.0 0.00 0.03 0.00 81 1012.4
20260830153005 54 169 0.0 0.0 0.00 0.03 0.00 81 1012.4
20260830151602 54 169 0.0 0.0 0.00 0.03 0.00 82 1012.7
20260830150100 53 169 0.0 0.0 0.00 0.03 0.00 82 1013.0
20260830144607 53 169 0.0 0.0 0.00 0.03 0.00 83 1013.0
20260830143056 52 169 0.0 0.0 0.00 0.03 0.00 82 1012.9
20260830141552 52 169 0.0 0.0 0.00 0.03 0.00 84 1013.0
20260830140052 51 169 0.0 0.0 0.00 0.03 0.00 84 1012.8
20260830134551 50 169 0.0 0.0 0.00 0.03 0.00 84 1013.0
20260830133100 50 169 0.0 0.0 0.00 0.03 0.00 85 1012.9
20260830131548 50 169 0.0 0.0 0.00 0.03 0.00 86 1012.7
20260830130048 49 169 0.0 0.0 0.00 0.03 0.00 85 1012.6
20260830124547 49 169 0.0 0.0 0.00 0.03 0.00 85 1012.6
20260830123046 49 169 0.0 0.0 0.00 0.03 0.00 85 1012.5
20260830121545 49 169 0.0 0.0 0.00 0.03 0.00 85 1012.4
20260830120048 49 169 0.0 0.0 0.00 0.03 0.00 86 1012.2
20260830114604 49 169 0.0 0.0 0.00 0.03 0.00 86 1012.1
20260830113043 49 169 0.0 0.0 0.00 0.03 0.00 86 1012.1
20260830111544 49 169 0.0 0.0 0.00 0.03 0.00 85 1012.1
20260830110042 49 169 0.0 0.0 0.00 0.03 0.00 85 1012.3
20260830104544 48 169 0.0 0.0 0.00 0.03 0.00 85 1012.3
20260830103050 48 169 0.0 0.0 0.00 0.03 0.00 85 1012.3
20260830101541 48 169 0.0 0.0 0.00 0.03 0.00 85 1012.3
20260830100041 48 169 0.0 0.0 0.00 0.03 0.00 85 1012.3
20260830094543 48 169 0.0 0.0 0.00 0.03 0.00 85 1012.4
20260830093053 48 169 0.0 0.0 0.00 0.03 0.00 84 1012.4
20260830091540 48 169 0.0 0.0 0.00 0.03 0.00 84 1012.3
20260830090039 47 169 0.0 0.0 0.00 0.03 0.00 85 1012.3
20260830084538 47 169 0.0 0.0 0.00 0.03 0.00 85 1012.3
20260830083038 47 169 0.0 0.0 0.00 0.03 0.00 84 1012.3
20260830081538 47 169 0.0 0.0 0.00 0.03 0.00 86 1012.3
20260830080035 47 169 0.0 0.0 0.00 0.03 0.00 84 1012.4
20260830074533 48 169 0.0 0.0 0.00 0.03 0.00 84 1012.3
20260830073034 48 169 0.0 0.0 0.00 0.03 0.00 84 1012.4
20260830071549 49 169 0.0 0.0 0.00 0.03 0.00 83 1012.4
20260830070026 49 169 0.0 0.0 0.00 0.03 0.00 82 1012.2
20260830064525 50 169 0.0 0.0 0.00 0.03 0.00 81 1012.1
20260830063022 50 169 0.0 0.0 0.00 0.03 0.00 81 1012.2
20260830061518 51 169 0.0 0.0 0.00 0.03 0.00 79 1011.8
20260830060015 52 169 0.0 0.0 0.00 0.03 0.00 78 1011.5
20260830054514 52 169 0.0 0.0 0.00 0.03 0.03 76 1011.5